Flag for U.S.A. Weather past 2 weeks in Cleveland, Tennessee, U.S.A.

Now
69 °F

Clear.


Feels Like: 69 °F
Forecast: 64 / 89 °F
Wind: No wind

Location: Lovell Field

Current Time: Aug 27, 2014 at 5:55:08 AM

Latest Report: Aug 27, 2014 at 4:53 AM


Visibility: 10 mi

Pressure: 30.06 "Hg

Humidity: 87%

Dew point: 65 °F

Location of ClevelandLocation

Historic Weather in Cleveland — Graph

°F

Cleveland temperature yesterday

Maximum temperature yesterday: 88 °F (at 4:53 PM)
Minimum temperature yesterday: 69 °F (at 6:53 AM)
Average temperature yesterday: 78 °F

Past Weeks' High & Low Weather Summary

 TemperatureHumidityPressure
High94 °F (Aug 20, 4:53 PM)93% (Aug 19, 12:53 AM)30.16 "Hg (Aug 19, 12:53 AM)
Low62 °F (Aug 14, 4:53 AM)32% (Aug 15, 1:53 PM)29.84 "Hg (Aug 12, 3:53 PM)
Average78 °F69%29.99 "Hg
* Reported Aug 12 3:04 AM — Aug 27 3:53 AM, Cleveland, Weather by CustomWeather, © 2014

Note: Actual official high and low records may vary slightly from our data, if they occured in-between our weather recording intervals... More about our weather records

Advertising

Cleveland weather history for previous 24 hours

 ConditionsComfort  
Time TempWeatherWind HumidityBarometerVisibility
3:53 AM
Aug 27
70 °FClear.No wind87%30.06 "Hg10 mi
2:53 AM71 °FClear.No wind84%30.06 "Hg10 mi
1:53 AM72 °FClear.3 mph84%30.07 "Hg10 mi
12:53 AM73 °FClear.No wind81%30.06 "Hg10 mi
11:53 PM
Aug 26
74 °FPassing clouds.No wind79%30.07 "Hg10 mi
10:53 PM74 °FClear.No wind82%30.07 "Hg10 mi
9:53 PM76 °FClear.No wind74%30.06 "Hg10 mi
8:53 PM82 °FPassing clouds.5 mph55%30.05 "Hg10 mi
7:53 PM84 °FScattered clouds.5 mph51%30.04 "Hg10 mi
6:53 PM86 °FScattered clouds.3 mph48%30.04 "Hg10 mi
5:53 PM86 °FScattered clouds.7 mph46%30.03 "Hg10 mi
4:53 PM88 °FScattered clouds.10 mph43%30.04 "Hg10 mi
3:53 PM87 °FScattered clouds.10 mph45%30.06 "Hg10 mi
2:53 PM87 °FBroken clouds.7 mph43%30.09 "Hg10 mi
1:53 PM84 °FBroken clouds.No wind43%30.11 "Hg10 mi
12:53 PM82 °FBroken clouds.5 mph46%30.14 "Hg10 mi
11:53 AM79 °FScattered clouds.No wind50%30.16 "Hg10 mi
10:53 AM78 °FBroken clouds.7 mph52%30.16 "Hg10 mi
9:53 AM76 °FBroken clouds.7 mph56%30.15 "Hg10 mi
8:53 AM72 °FBroken clouds.5 mph68%30.14 "Hg10 mi
7:53 AM70 °FPartly cloudy.No wind73%30.12 "Hg10 mi
6:53 AM69 °FPassing clouds.3 mph76%30.09 "Hg10 mi
5:53 AM70 °FPassing clouds.No wind76%30.08 "Hg10 mi
Weather by CustomWeather, © 2014

See weather overviewHow to use our weather pages